Hourly Data Report for August 01, 2020

SVARTEVAEG
NUNAVUT
Current Station Operator: ECCC - MSC

81°09'39.000" N
91°48'59.060" W
72.00 m
2403833
71872
NSG

Download Data

Hourly Data (August 2020)
Hourly Data Report for August 1, 2020
TIME Temp Definition
°C
Dew Point Definition
°C
Rel Hum Definition
%
Wind Dir Definition
10's deg

Wind Spd Definition
km/h
Visibility Definition
km
Stn Press Definition
kPa
Hmdx Definition


Wind Chill Definition


Weather Definition


00:00 1.8 0.9 94 1 8   99.88     LegendNANA
01:00 1.7 0.1 89 7 4   99.83     LegendNANA
02:00 3.0 1.0 87 26 5   99.77     LegendNANA
03:00 3.1 0.8 85 30 6   99.73     LegendNANA
04:00 5.3 0.2 70 34 4   99.65     LegendNANA
05:00 6.2 0.6 67 36 3   99.59     LegendNANA
06:00 5.6 1.0 72 8 5   99.53     LegendNANA
07:00 5.6 1.0 72 12 6   99.47     LegendNANA
08:00 3.9 0.8 80 17 11   99.39     LegendNANA
09:00 3.5 1.9 89 19 15   99.30     LegendNANA
10:00 4.7 3.6 92 19 20   99.23     LegendNANA
11:00 4.5 3.6 94 19 25   99.17     LegendNANA
12:00 4.4 4.1 98 18 25   99.14     LegendNANA
13:00 3.9 3.7 98 19 20   99.13     LegendNANA
14:00 2.8 2.3 96 27 49   99.08     LegendNANA
15:00 1.6 0.4 92 27 65   99.01     LegendNANA
16:00 1.0 -0.1 92 27 64   99.03     LegendNANA
17:00 0.7 -0.5 92 29 46   99.23     LegendNANA
18:00 0.0 -1.4 90 28 37   99.28   -7 LegendNANA
19:00 -0.3 -2.5 85 28 37   99.31   -8 LegendNANA
20:00 -0.9 -2.2 91 28 32   99.33   -8 LegendNANA
21:00 -0.9 -1.9 93 28 21   99.34   -7 LegendNANA
22:00 -0.5 -1.4 94 27 15   99.34   -5 LegendNANA
23:00 -0.4 -1.5 92 27 13   99.30   -5 LegendNANA

Notes on Data Quality.

Legend

  • E = Estimated
  • M = Missing
  • NA = Not Available*
  • [empty] = Indicates an unobserved value
Date modified: